Вернуться в каталог

YAOGAN 25C

АктивенВоенныеLEO
NORAD 40340·PAYLOAD·🇨🇳 China

Запущен Dec 10, 2014 с Jiuquan Satellite Launch Center

Loading…

Ближайшие Пролёты (ближайшие 24 часа)

TLE

СвежийSource: Space-Track

Эпоха: Sep 14, 2026, 15:07 UTC

1 40340U 14080C   26257.62999118 -.00000119  00000-0 -31023-4 0  9997
2 40340  63.3840  80.8400 0374751  10.1003 350.7290 13.45355663577780

Отслеживайте YAOGAN 25C в реальном времени с AllMySat

Download on the App Store